Probability
0 0 0 0 0 0 0 0 0 0 1 4 8 11 12 12 14 16 16 14 13 16 20 20 18 15 12 11 11 13 15 14 14 15 16 15 12 11 11 10 9 8 7 6
0 0 0 0 0 0 0 0 0 0 1 3 5 9 11 11 12 16 17 16 16 18 22 22 20 16 12 10 10 13 15 15 14 15 15 14 13 12 13 13 12 10 9 8
0 0 0 0 0 0 0 0 0 0 1 1 3 6 8 8 10 14 17 18 18 19 23 23 20 16 12 10 9 12 14 14 14 14 13 12 12 14 15 15 14 12 10 10
0 0 0 0 0 0 0 0 0 0 0 1 3 5 6 7 8 11 14 16 16 17 19 21 18 15 13 12 11 12 11 12 15 15 13 10 11 13 15 14 12 10 10 10
0 0 0 0 0 0 0 0 1 1 2 3 4 5 7 7 8 9 11 14 16 16 17 17 16 14 13 13 13 11 10 12 15 17 14 11 11 13 13 12 10 9 9 10
0 0 0 1 1 0 0 1 3 4 5 7 7 7 9 9 8 9 10 13 17 17 17 15 13 13 13 12 10 9 10 12 15 17 15 14 14 14 13 12 11 10 10 11
0 0 1 2 2 1 2 4 6 7 8 10 11 11 11 10 9 8 10 13 16 16 15 14 13 14 13 9 8 8 9 11 13 15 14 14 15 15 14 13 13 12 12 12
0 0 2 3 3 2 3 5 6 7 9 11 11 11 11 11 9 8 10 14 15 15 14 13 14 15 13 9 9 10 11 11 13 13 13 13 13 14 13 12 11 12 12 12
1 1 4 5 4 3 4 4 5 7 9 11 10 9 10 12 11 10 11 14 15 15 14 13 13 13 12 11 13 13 12 12 13 14 13 12 11 10 9 8 8 8 9 9
3 4 5 5 3 2 3 4 6 8 10 11 10 8 9 13 15 13 12 13 14 15 14 13 11 11 13 14 15 15 12 12 13 13 13 11 8 7 6 5 5 5 7 7
5 6 6 4 2 1 2 4 6 9 11 12 10 9 10 14 16 14 11 11 13 15 15 13 10 11 13 15 15 15 13 11 11 11 10 8 6 5 4 3 3 4 5 7
6 7 6 4 3 2 1 2 4 8 12 10 9 9 10 13 14 12 9 9 13 15 14 11 9 10 12 14 15 14 12 11 9 8 6 5 4 4 3 3 2 2 3 4
6 6 5 5 4 4 3 2 3 8 11 9 6 7 8 10 11 10 9 9 11 12 11 7 5 6 9 12 13 12 10 8 7 6 5 4 3 3 3 3 2 1 1 1
6 7 7 7 7 6 5 4 5 8 9 6 3 4 6 8 9 8 7 7 8 8 6 4 2 3 5 8 10 9 7 5 5 5 4 3 3 3 3 3 3 3 2 1
6 7 9 9 9 8 6 5 5 6 6 4 2 3 6 8 8 8 8 8 7 6 6 4 2 2 4 6 7 6 4 3 3 4 3 2 2 3 3 3 4 4 4 3
6 7 8 8 7 6 5 4 5 5 4 3 4 5 6 8 9 10 11 10 9 8 8 7 4 3 4 4 4 4 3 3 3 3 2 1 1 2 3 3 3 4 5 5
5 5 5 4 3 3 3 4 4 4 3 3 5 4 5 7 10 12 12 12 11 11 10 7 5 4 3 3 3 3 3 3 2 2 2 0 0 1 2 3 3 4 5 6
3 2 1 1 2 2 3 3 3 2 2 3 4 5 5 7 9 12 13 12 12 11 9 6 5 4 4 3 3 3 3 3 3 3 2 1 0 0 1 1 2 3 4 5
2 1 0 0 1 2 3 3 3 3 2 3 4 6 8 9 10 14 14 12 10 10 8 5 4 4 3 3 3 3 3 3 3 3 2 1 0 0 0 0 1 1 3 4
1 0 0 0 0 1 3 4 7 8 6 5 6 9 10 11 12 14 15 12 10 10 8 5 3 3 3 3 3 3 3 3 3 1 1 0 0 0 0 0 0 1 2 3
1 1 1 1 1 2 4 5 7 9 8 7 8 10 11 11 12 14 14 12 11 11 8 5 3 3 3 3 3 3 3 3 2 1 0 0 0 0 0 0 1 2 3 3
2 2 2 2 2 3 6 6 7 8 8 8 8 8 8 9 9 11 12 12 12 11 9 7 4 3 3 3 3 3 3 3 3 1 1 0 0 0 1 1 2 3 3 3
3 2 1 1 2 4 5 6 6 6 7 7 6 6 6 5 6 8 9 10 10 9 8 7 5 2 2 2 3 3 3 3 3 3 2 1 0 1 2 3 3 3 3 3
3 2 2 2 3 3 4 5 5 5 5 6 5 5 5 4 4 6 8 7 7 7 7 6 3 1 2 4 4 4 4 4 4 3 2 1 0 2 3 3 3 3 3 3
2 2 2 2 3 3 4 5 4 4 4 5 5 5 6 5 5 6 7 6 5 5 6 5 2 1 3 5 5 4 4 4 4 3 2 1 1 2 3 4 3 3 3 3
1 1 1 2 3 3 4 5 5 5 5 6 6 6 6 6 6 7 7 5 5 5 6 6 4 3 4 5 4 4 4 4 3 2 2 2 3 4 5 5 4 4 3 2
0 0 1 2 3 3 4 6 6 6 6 6 6 5 5 6 7 7 6 5 5 6 6 6 5 4 4 4 4 3 3 3 2 1 1 2 4 6 6 6 6 5 3 1
Wind_Speed
9 7 8 9 8 8 9 9 10 7 6 3 2 2 3 4 5 5 5 4 4 4 3 3 3 3 3 3 2 2 2 2 2 1 1 1 1 1 1 1 1 1 1 2
10 9 9 11 10 10 10 10 9 9 6 1 1 2 3 4 5 5 5 4 4 4 4 3 3 2 2 3 2 2 1 1 1 1 1 1 1 1 1 1 1 1 2 2
10 8 10 12 9 9 9 8 9 8 3 1 1 2 2 4 5 5 5 5 4 4 3 3 3 3 2 2 2 2 2 1 1 1 0 0 1 1 1 1 1 1 2 2
9 8 13 4 1 5 7 6 6 4 1 2 2 2 2 3 4 4 4 4 4 3 3 2 2 3 2 2 3 2 2 1 1 1 0 0 0 0 1 1 1 1 2 2
8 11 11 5 2 3 5 4 2 2 2 2 3 4 3 3 3 3 3 3 3 2 2 2 2 2 3 2 2 2 2 1 0 0 0 0 0 1 1 1 1 1 1 1
9 11 10 1 2 1 6 6 1 1 2 3 3 5 2 3 2 2 3 3 2 2 2 2 2 3 3 3 2 2 1 1 1 1 0 1 1 1 1 1 1 1 1 1
11 11 6 3 1 3 7 2 3 0 0 2 1 3 3 2 2 2 2 3 3 3 2 2 2 3 3 3 2 2 1 1 1 1 1 1 0 0 1 1 1 1 1 1
9 11 4 4 1 2 4 4 2 1 1 1 1 2 3 3 2 2 2 3 3 3 2 2 2 3 2 2 1 1 2 2 1 1 1 0 0 1 1 1 1 1 1 1
4 2 5 2 2 3 2 1 1 1 1 1 1 2 2 2 1 2 2 3 3 2 2 2 2 3 2 2 2 2 2 2 2 1 1 1 1 1 1 2 2 1 2 1
4 2 0 1 2 2 2 2 2 1 1 0 1 1 1 1 1 1 2 3 2 2 2 2 2 2 3 2 2 3 3 2 2 2 1 1 1 1 1 2 2 2 2 2
5 3 2 2 0 2 2 1 1 1 1 1 0 1 1 1 1 1 2 2 2 2 2 1 2 2 3 3 3 3 3 2 2 2 1 1 1 1 1 2 2 3 3 3
3 1 3 2 1 1 0 1 1 1 1 1 0 0 1 1 1 1 2 2 2 2 2 1 1 2 2 3 3 3 2 2 1 1 1 1 1 0 2 1 1 0 3 4
5 4 4 3 2 1 1 1 2 2 1 1 1 1 1 1 1 1 1 2 2 2 2 1 2 2 2 2 3 3 2 1 1 1 1 2 1 1 1 0 1 2 2 2
4 4 4 4 3 2 2 2 1 2 1 1 1 1 1 1 1 1 1 2 2 2 2 2 2 1 2 2 2 2 2 2 2 1 1 2 2 2 2 2 1 1 2 3
4 5 5 4 4 3 3 3 3 2 2 1 1 1 1 1 1 1 1 1 1 2 2 2 2 2 2 2 3 3 2 1 1 1 2 2 2 2 2 2 2 2 1 1
3 3 3 3 3 3 4 4 4 3 2 2 2 1 1 1 1 1 1 1 1 1 1 2 2 1 2 2 3 3 2 2 2 2 2 2 2 2 2 2 2 2 2 2
4 3 3 2 2 3 3 3 3 2 2 2 1 1 1 0 1 1 1 1 1 1 1 2 1 2 2 3 3 2 2 2 3 3 2 1 2 2 2 2 2 2 2 2
4 4 3 3 2 2 2 3 2 2 2 2 1 2 2 2 2 2 1 1 2 2 2 2 1 2 3 3 3 2 2 2 2 2 1 1 2 2 2 3 3 3 3 0
3 3 3 3 2 3 3 2 2 2 2 2 2 3 3 3 3 2 2 2 2 3 2 1 2 4 4 3 2 3 2 2 2 2 2 2 3 2 2 3 3 3 3 2
1 1 2 2 2 2 3 2 2 2 2 3 3 3 3 3 2 2 3 3 2 1 1 2 3 3 3 2 3 3 2 2 2 2 2 2 2 2 2 3 3 3 3 3
0 1 1 1 2 2 2 2 2 3 3 3 3 3 3 2 2 3 3 3 2 1 2 3 4 3 2 1 4 4 3 3 3 3 3 2 2 3 3 3 3 3 3 2
1 0 0 1 1 1 2 2 2 3 3 3 3 3 3 3 3 3 4 2 2 2 3 2 2 1 1 3 4 4 3 3 3 2 2 2 3 3 3 3 3 3 3 2
2 1 2 2 2 2 3 3 2 2 3 3 3 3 3 2 2 2 2 1 1 2 2 1 2 2 2 4 3 3 3 3 3 3 3 3 3 3 3 3 3 3 3 3
2 2 2 2 3 3 3 3 2 2 2 3 3 3 3 3 3 2 1 2 2 2 2 2 3 3 5 3 3 3 3 3 3 3 3 3 3 3 3 3 2 3 3 3
2 2 2 2 3 2 2 2 2 2 3 2 2 3 3 2 2 1 0 1 2 2 2 3 5 5 4 2 2 2 2 2 2 3 3 3 3 3 2 2 2 2 2 2
3 3 2 2 2 2 2 2 2 1 1 1 1 1 1 0 1 1 1 2 2 2 2 1 2 3 2 2 2 2 1 1 2 2 3 3 3 3 2 2 3 2 2 2
3 2 2 2 2 2 2 1 1 2 1 1 0 1 1 1 1 0 1 1 1 2 1 1 1 1 1 1 1 1 1 1 1 2 2 2 2 2 2 2 2 2 2 2
Wind_Direction
273 279 267 262 255 240 253 275 287 298 295 269 225 210 190 179 169 162 165 163 146 139 127 129 122 133 145 140 137 142 157 152 154 162 176 203 209 222 234 247 244 264 281 290
258 258 256 257 254 248 247 261 273 279 285 15 149 177 182 181 176 172 167 161 151 141 137 136 137 147 145 139 140 143 138 126 132 156 187 194 212 216 213 242 289 284 282 293
260 255 254 250 249 254 256 256 271 282 307 143 193 175 187 192 186 179 169 162 155 148 144 143 143 147 152 140 139 143 151 146 159 184 181 206 237 193 200 218 245 271 288 295
260 251 251 270 349 275 271 267 271 282 249 207 201 175 178 186 184 183 176 169 163 162 152 145 139 137 146 145 148 151 152 143 157 174 163 154 243 252 224 229 249 273 300 311
255 251 251 227 213 252 262 258 289 267 196 179 170 177 174 164 166 174 180 178 169 168 161 149 144 143 151 148 136 140 129 128 132 152 147 175 238 262 267 260 265 274 289 304
247 259 262 272 88 308 264 232 142 235 196 180 207 231 154 119 134 148 153 160 162 158 152 152 166 154 161 156 143 142 135 139 133 158 194 242 269 272 278 266 267 274 299 303
245 252 255 51 47 233 248 5 63 5 162 195 209 346 80 125 117 121 138 153 155 162 161 167 171 169 182 169 162 157 145 146 151 167 214 218 213 280 277 277 296 306 309 308
243 249 245 61 184 280 17 39 56 62 78 104 87 80 118 129 126 144 150 161 160 159 162 161 165 177 184 175 159 155 158 164 178 207 226 149 177 242 262 278 255 269 278 288
268 308 59 49 29 36 36 70 70 77 84 137 156 137 134 132 139 157 173 173 170 159 169 173 175 177 190 180 171 170 171 172 183 207 215 201 228 242 243 249 268 289 295 305
253 214 87 57 64 50 37 41 53 74 74 180 182 165 151 158 177 183 184 186 174 174 196 191 193 191 184 170 175 180 177 179 181 193 200 177 252 261 286 300 304 307 312 318
246 251 247 203 20 27 46 44 59 64 21 354 233 227 229 222 217 214 199 193 185 192 205 198 204 198 175 161 176 182 179 184 191 193 174 198 250 324 307 348 345 313 318 318
275 296 279 279 316 352 41 334 334 337 335 341 324 239 230 235 257 244 216 202 200 201 207 199 208 184 167 168 181 187 190 195 209 205 175 222 209 148 38 2 86 311 311 309
294 300 300 291 275 267 257 269 296 301 291 311 290 256 252 255 249 235 216 203 204 204 218 217 214 174 158 174 183 189 202 197 232 215 205 228 237 247 249 154 178 208 232 254
273 267 260 260 266 261 259 257 276 284 290 299 281 274 262 248 228 228 232 221 207 200 198 195 215 180 170 167 175 196 216 169 216 228 237 244 252 260 266 278 277 265 202 206
264 265 265 266 259 251 245 243 255 271 289 297 276 270 265 255 228 221 237 231 197 205 187 183 192 171 169 178 186 207 217 199 218 253 251 253 257 262 273 287 297 304 308 157
271 263 258 249 249 246 239 243 254 267 275 271 275 275 281 274 210 173 198 205 207 204 168 181 193 187 181 193 207 216 203 165 217 245 243 251 268 280 291 297 301 308 311 336
260 258 254 250 252 256 259 267 265 265 272 264 264 264 227 194 182 178 208 187 203 215 200 197 202 190 195 209 223 236 218 176 202 242 250 263 277 286 291 290 293 294 300 359
268 271 269 268 268 259 255 258 255 259 264 265 261 242 225 221 226 211 217 186 197 206 194 198 188 210 212 215 228 242 235 217 225 241 259 265 275 271 272 276 277 279 288 254
274 267 269 271 269 264 265 264 261 262 254 252 250 245 237 232 233 228 206 194 207 213 201 204 186 223 220 205 232 234 238 236 237 243 245 235 242 257 269 275 279 280 284 289
286 258 261 270 268 273 279 278 276 270 265 262 257 249 243 240 234 223 207 213 218 231 187 186 214 230 227 202 227 239 231 232 237 243 246 248 254 266 273 279 279 276 279 290
282 213 233 248 263 276 283 274 262 265 266 263 258 256 251 242 233 222 219 219 185 187 205 184 212 222 219 205 225 237 229 229 233 235 236 243 251 261 269 270 274 278 280 284
340 314 264 278 282 291 296 279 260 255 248 249 252 250 245 238 232 222 217 231 208 174 214 208 214 148 202 235 231 235 233 235 241 244 242 250 256 260 271 281 283 286 286 290
318 303 286 287 290 290 286 274 258 250 252 247 241 244 253 264 266 252 227 202 203 183 230 198 103 130 224 236 237 235 237 240 243 242 240 241 252 261 266 275 285 290 295 295
292 287 286 284 283 278 276 281 277 255 246 243 232 233 245 244 238 239 243 144 166 215 226 125 146 187 230 236 244 246 245 245 250 256 257 252 253 263 271 276 282 285 286 288
285 276 270 264 262 268 280 273 246 228 228 226 221 215 232 241 254 264 289 138 138 201 205 158 170 201 227 247 254 258 259 278 293 293 287 284 276 266 269 278 285 289 290 287
284 273 276 273 280 275 259 247 256 259 251 240 232 239 273 261 214 220 212 190 179 190 222 195 181 208 236 251 257 267 277 251 248 266 286 288 291 298 305 311 307 302 302 303
264 259 249 259 267 265 267 262 265 264 258 253 323 358 329 294 254 212 201 211 202 192 193 204 211 232 258 271 275 274 279 281 287 295 296 302 311 312 321 321 318 324 329 328